RH
91 90 94 90 84 84 89 89 76 57 55 56 55 59 62 72 74 75 75 88 85 82 75 75 73 74 75 75 73 75 77 77 78 80 80 81 84 83 81 81 81 81 81
77 80 82 84 83 80 83 90 91 86 73 60 54 56 60 68 70 83 88 86 86 82 81 72 72 74 75 76 77 75 76 76 77 79 80 80 81 83 82 80 80 80 80
90 79 75 69 65 63 54 71 73 80 88 71 57 51 53 61 65 69 75 81 86 89 83 74 72 71 74 75 74 80 76 76 77 79 80 80 82 81 82 82 79 78 78
88 92 89 81 78 66 59 56 55 59 74 84 74 63 55 49 52 60 67 73 78 77 85 80 82 79 76 73 72 70 78 79 78 79 78 80 79 80 79 80 81 79 77
68 74 86 88 78 83 67 63 55 54 60 75 70 74 68 60 46 47 59 66 72 78 82 86 89 86 84 79 71 68 71 82 82 80 79 79 80 78 76 77 79 80 78
70 60 64 75 73 70 80 63 56 61 62 65 48 50 59 45 42 48 60 59 67 69 76 73 84 86 88 84 77 72 70 75 84 83 81 80 79 79 77 76 76 77 79
64 70 65 59 64 61 65 62 64 66 69 68 61 52 58 59 49 46 53 62 66 76 85 89 79 88 88 90 87 81 76 72 74 81 84 82 80 79 78 76 76 77 76
61 52 61 63 61 61 60 59 60 68 68 70 66 72 60 60 56 67 64 65 91 70 68 51 58 58 77 87 92 94 90 80 74 73 78 82 84 81 78 77 76 77 77
63 62 57 62 62 73 69 68 69 66 71 66 65 68 65 59 65 60 51 55 48 50 48 44 40 40 55 66 73 84 91 92 84 80 80 79 80 83 83 81 77 77 77
61 64 63 60 65 70 69 67 64 72 70 69 68 55 63 61 63 70 56 51 50 42 46 46 46 45 59 70 73 78 80 80 78 80 83 85 84 83 83 85 84 82 82
58 60 61 65 68 71 68 70 72 74 75 73 73 68 66 67 61 56 61 54 48 48 48 50 49 58 56 62 60 68 67 63 67 67 69 69 70 74 78 80 83 85 87
65 61 58 62 61 69 69 72 72 71 75 75 74 74 74 74 69 68 66 66 63 53 54 57 63 63 61 63 58 65 61 59 60 61 62 63 64 66 68 71 74 76 80
61 54 56 62 67 66 68 70 72 73 74 77 73 75 74 73 69 71 70 75 72 67 59 68 68 64 48 60 68 65 59 58 59 59 59 60 60 62 62 62 64 65 68
59 52 54 57 60 65 66 68 74 72 71 76 73 72 74 73 72 71 74 74 66 72 70 58 70 70 63 63 60 61 56 59 60 59 60 59 60 60 60 60 61 62 63
44 51 52 54 58 62 64 67 72 70 72 75 77 75 76 76 77 76 76 77 76 67 71 68 72 71 66 62 61 63 58 61 59 58 58 58 60 61 62 62 62 62 62
52 52 53 53 56 60 62 63 66 65 67 72 72 72 73 75 77 79 80 78 80 83 85 78 76 77 66 54 56 64 61 60 59 57 60 60 61 63 64 64 64 64 64
57 54 52 55 55 57 59 62 60 63 64 63 64 68 71 72 76 76 79 79 82 84 91 82 78 71 70 69 66 62 57 58 58 61 62 63 64 64 63 63 64 65 66
62 58 55 55 56 57 59 60 62 62 62 63 64 64 65 51 67 73 80 78 81 80 86 86 79 78 76 74 68 71 58 51 60 60 60 61 62 61 61 63 65 66 67
68 64 58 58 60 62 62 60 59 60 60 62 64 65 65 67 69 71 72 74 77 64 80 86 84 82 80 76 72 74 70 67 54 57 57 57 59 63 64 66 66 67 70
87 73 67 65 65 63 62 64 63 69 70 69 74 74 73 73 73 72 69 74 68 79 83 86 85 82 84 76 82 79 72 70 68 52 56 59 63 64 63 63 63 65 67
91 89 81 74 72 67 55 66 68 69 72 76 78 72 69 69 63 65 66 78 80 84 85 86 87 89 89 83 82 80 75 70 68 65 72 73 62 63 64 64 62 63 64
95 95 89 90 86 64 55 52 59 76 77 77 77 76 71 65 65 57 57 58 62 84 87 92 92 92 94 84 74 73 76 79 82 74 74 75 66 68 66 65 65 66 67
96 93 93 92 87 82 63 58 56 70 75 76 73 72 67 51 70 73 66 60 63 61 62 76 85 84 79 72 77 83 85 84 82 73 76 79 67 70 63 52 61 64 65
95 94 92 92 92 81 64 62 59 70 74 74 76 79 82 79 75 72 74 76 78 81 80 69 76 77 75 74 79 75 84 85 75 69 68 79 69 71 67 63 61 62 64
97 96 95 91 91 88 66 63 64 81 72 71 71 80 83 81 67 64 81 90 89 85 67 65 64 64 66 68 68 72 82 82 79 71 65 73 77 70 60 62 64 64 66
95 94 94 93 86 89 71 64 68 93 95 80 71 71 69 68 64 63 83 95 98 88 83 79 82 78 68 72 66 76 78 82 80 75 77 78 69 73 82 69 69 60 62
Wind_Speed
3 3 3 3 4 3 3 3 3 3 4 4 4 5 5 4 4 2 2 3 3 4 6 6 5 5 5 5 4 6 6 6 7 8 9 9 10 9 9 10 10 11 12
5 3 3 3 4 3 3 3 2 2 3 3 4 5 4 4 4 4 2 1 4 4 4 5 5 5 4 4 4 3 5 5 5 6 7 8 8 8 7 8 8 8 9
7 6 4 4 4 3 4 3 3 3 1 3 3 3 4 6 4 4 3 2 2 4 6 6 4 3 1 4 4 5 4 4 4 4 5 5 6 6 8 6 5 5 7
6 5 4 4 5 3 3 3 2 2 3 3 2 4 3 3 5 5 3 3 3 3 3 6 5 5 3 2 2 1 7 6 4 3 2 3 3 4 5 6 3 3 4
2 2 4 4 3 4 3 3 2 1 1 1 1 3 4 4 4 4 5 4 4 3 3 3 5 5 5 6 5 3 2 7 6 4 3 2 2 0 2 3 4 1 2
5 4 4 2 5 2 2 4 4 3 1 2 2 1 3 3 3 3 4 3 4 4 4 4 3 2 5 5 7 7 4 1 6 6 5 4 4 3 3 1 1 2 3
4 6 4 3 2 3 4 4 2 2 3 3 1 2 2 2 2 3 3 3 4 4 4 4 3 3 3 7 5 5 5 4 3 4 7 6 6 5 6 4 3 4 4
4 3 1 4 4 3 5 2 2 2 2 4 1 2 2 2 3 4 2 3 5 4 6 6 6 6 5 4 9 14 11 6 3 4 6 6 7 7 8 8 7 7 7
4 5 6 4 2 3 3 4 5 3 0 2 4 1 3 3 1 3 6 4 5 4 4 5 7 7 6 6 8 9 12 11 10 8 8 8 9 9 9 10 10 10 10
3 6 3 3 4 4 4 3 4 3 2 2 2 4 4 3 2 1 2 3 4 5 5 4 5 6 6 5 12 15 16 15 15 15 16 16 15 14 13 14 11 12 12
5 4 4 6 4 3 2 5 5 5 3 3 3 2 3 3 3 1 3 3 3 4 4 4 4 5 7 6 6 11 15 15 15 14 13 14 14 15 15 15 16 17 15
3 4 6 4 3 3 4 4 4 5 4 4 3 4 3 2 2 3 1 1 2 3 3 4 5 5 5 5 9 13 17 17 16 18 15 15 15 14 13 14 13 14 16
2 3 3 3 2 3 4 4 4 4 4 3 3 3 3 3 2 1 2 1 1 2 2 4 4 4 6 5 7 12 16 18 18 17 16 15 15 15 15 14 13 13 14
2 3 3 3 4 3 4 4 3 3 4 3 4 3 2 3 2 2 2 2 2 2 2 1 3 4 5 5 9 15 8 17 17 17 17 17 16 15 15 15 15 15 14
2 3 4 3 4 4 4 4 2 3 3 3 2 2 2 2 3 3 2 1 2 1 2 2 1 3 4 4 7 5 6 15 16 15 14 15 17 16 16 16 17 16 16
2 3 2 3 3 4 4 3 3 3 3 2 2 3 3 2 3 2 2 2 1 2 2 1 1 2 5 6 7 5 6 12 13 15 16 16 16 17 16 17 17 18 18
2 2 2 2 2 3 3 3 3 3 3 3 3 4 3 3 2 2 1 1 0 1 2 3 2 4 4 6 7 7 8 7 6 15 18 16 16 16 17 16 16 16 17
1 1 1 2 2 3 3 3 3 3 3 3 3 4 3 2 3 3 1 2 1 1 2 5 2 2 3 4 6 7 7 7 7 13 18 18 19 18 18 19 20 20 20
3 3 2 2 1 1 1 2 2 2 3 3 3 3 3 3 2 2 2 2 2 2 2 2 4 1 2 3 6 4 5 7 7 15 17 18 19 19 18 17 18 18 18
3 4 3 3 3 2 2 2 2 1 2 3 4 4 4 3 3 4 4 3 3 2 2 3 4 4 2 4 3 5 7 4 7 9 14 14 14 15 19 22 23 22 22
3 3 3 3 4 3 3 3 3 2 2 3 3 4 4 5 7 6 4 4 4 3 3 3 4 3 4 4 5 3 7 9 9 7 3 4 8 9 9 16 17 20 22
2 2 4 3 3 4 7 7 5 3 3 2 3 3 4 7 6 7 7 8 5 3 3 2 2 3 4 4 5 7 8 8 6 2 10 11 9 10 9 8 19 23 25
2 5 5 4 5 4 11 10 8 3 2 2 3 4 4 4 5 3 6 9 8 10 10 4 4 4 6 5 5 8 8 8 9 9 12 13 7 10 7 9 21 26 26
5 5 6 5 5 6 13 12 10 3 3 3 4 4 4 4 4 6 5 5 4 3 4 5 5 6 6 6 7 8 9 9 9 7 7 9 3 10 9 8 24 25 23
4 4 4 6 6 6 14 14 10 3 4 4 4 4 4 4 7 10 1 1 4 5 7 10 12 14 14 13 13 7 6 7 8 6 7 8 4 10 10 9 7 12 18
5 4 5 6 11 8 14 16 12 3 3 3 4 5 7 6 9 11 3 3 4 5 4 6 5 4 7 7 11 4 4 7 7 6 1 6 8 7 8 3 5 10 9
Wind_Direction
23 2 49 46 42 27 44 39 28 47 29 20 27 29 55 55 73 103 151 189 187 164 161 161 158 145 136 129 106 98 88 77 70 70 71 63 50 49 61 66 65 68 67
353 12 36 55 49 19 8 15 26 18 72 19 28 19 28 48 40 38 43 289 232 226 204 190 188 181 163 163 158 144 116 95 81 74 62 65 62 52 51 61 67 70 71
355 344 25 20 32 9 10 5 17 352 41 74 41 29 20 4 8 26 360 334 311 245 241 228 217 210 197 208 202 206 180 140 115 95 87 70 65 61 61 60 61 71 73
1 357 13 20 3 358 21 8 354 58 346 27 15 343 355 1 341 339 350 355 332 325 237 225 245 257 251 268 280 304 193 179 162 141 109 90 58 67 68 65 49 77 89
282 207 46 3 21 351 7 5 356 36 336 348 351 331 324 331 328 333 324 342 342 346 319 235 223 242 261 271 275 283 296 193 190 187 177 177 179 277 57 72 74 104 109
5 2 52 10 52 255 5 29 14 321 55 346 316 284 280 281 282 286 301 319 324 335 338 317 231 257 257 266 266 262 274 320 216 210 205 219 221 229 245 265 329 34 220
50 1 23 359 59 37 49 359 304 330 352 353 349 6 4 341 243 264 282 306 339 348 24 31 39 40 23 35 358 301 284 277 319 293 239 218 236 234 248 247 258 263 268
6 92 59 30 25 41 41 11 43 357 349 343 123 102 55 339 20 9 18 37 54 33 42 36 33 39 40 40 39 37 39 28 11 339 335 296 259 246 252 252 248 252 255
12 55 44 49 54 73 34 16 33 14 210 7 3 150 132 196 328 354 31 39 47 45 32 27 26 26 27 44 38 34 35 36 36 31 21 12 349 337 295 263 251 248 250
91 68 73 51 39 49 38 17 35 32 3 26 317 11 65 86 149 154 34 19 29 42 21 20 30 26 36 44 54 38 37 38 43 35 33 31 21 13 360 355 341 281 250
55 46 51 51 29 48 29 51 37 30 31 31 5 335 11 53 61 261 123 316 9 19 13 31 42 53 41 41 47 39 39 34 29 27 21 12 358 357 352 349 348 338 341
55 38 51 56 43 35 24 41 50 51 45 50 14 28 26 34 40 58 134 34 329 321 7 26 57 56 46 38 47 37 33 23 13 17 360 357 352 352 352 343 338 335 329
38 42 57 47 37 31 31 29 47 49 39 62 22 26 36 40 8 68 67 74 9 314 12 30 35 32 40 30 30 31 19 10 3 1 352 346 343 341 337 331 323 322 322
69 30 50 55 50 40 38 28 43 53 60 51 55 44 52 36 32 59 91 106 7 323 326 170 44 32 28 23 11 13 3 2 353 350 343 338 334 334 329 322 320 319 317
131 56 39 34 36 39 36 30 31 49 51 37 37 44 67 36 40 41 52 75 138 226 280 306 188 37 13 8 360 6 351 341 340 334 332 329 322 320 317 313 312 310 306
59 62 41 40 28 35 32 35 32 32 49 14 63 39 29 29 43 46 47 29 50 182 270 299 332 7 350 355 346 345 332 334 327 327 323 319 314 311 310 306 303 302 300
40 34 23 15 27 34 30 39 18 46 57 21 20 41 19 6 3 15 41 8 331 155 265 306 306 336 336 338 338 333 328 323 323 324 321 317 314 312 310 307 303 303 303
237 245 327 349 357 5 22 28 21 10 19 13 5 25 3 6 19 8 20 308 277 265 231 283 269 291 297 320 315 318 320 319 314 310 316 313 311 308 307 306 302 298 295
213 236 240 259 267 310 349 354 348 336 353 345 343 333 325 340 343 328 311 289 275 293 287 277 293 319 278 301 315 300 302 302 305 310 309 307 307 307 306 307 305 304 303
209 232 242 257 256 259 265 278 298 355 7 360 334 332 304 289 282 277 273 270 265 258 266 274 288 296 283 302 289 313 310 303 304 305 297 300 310 315 307 300 298 297 295
222 217 237 255 264 263 251 225 212 238 296 303 314 310 304 303 284 264 247 241 240 248 256 258 266 276 288 309 306 305 309 313 305 277 286 315 306 303 296 295 293 295 294
241 228 228 224 246 254 259 249 207 219 250 279 289 300 308 297 285 303 308 307 279 224 244 246 260 277 280 310 309 308 306 318 323 340 328 307 304 292 288 286 290 293 291
205 237 242 234 242 242 256 256 249 203 227 256 277 287 298 297 332 305 304 300 300 288 284 291 295 278 277 277 295 302 294 293 291 312 311 296 305 288 292 291 295 288 291
220 215 228 228 238 251 255 255 253 209 226 255 266 273 278 288 289 281 266 263 266 269 279 281 265 268 258 268 277 300 308 299 293 293 296 281 318 302 295 289 289 294 298
224 222 213 215 219 239 248 250 246 182 226 259 278 274 266 274 295 290 297 294 287 277 286 289 295 297 299 311 309 310 293 300 305 306 287 277 301 315 299 289 292 336 328
229 213 230 215 229 234 243 245 244 169 194 239 263 263 272 283 292 293 266 208 280 279 268 275 289 306 305 293 303 295 303 302 311 304 40 343 336 336 318 274 326 330 311